This demonstration page uses our WeatherBlox Daily Observations layout. Learn more.

Left ArrowRight Arrow

Hourly Observations for February 4, 2016

Temp ( °F °C ) Dew Point ( °F °C ) Humidity (%) Winds ( mph kmh ) Pressure ( in mb ) Visibility ( mi km ) Precip ( " mm )
12:58 am 00:58 Clear 11 -11.9 8 -13.1 91 91 SSE 5 7 30.26 1025 10 16 0.00 0.00
1:58 am 01:58 Clear 11 -11.4 9 -12.7 90 90 Calm 30.26 1025 10 16 0.00 0.00
2:58 am 02:58 Mostly Cloudy 15 -9.2 12 -11 87 87 S 3 6 30.25 1024 10 16 0.00 0.00
3:55 am 03:55 Cloudy 17 -8.2 13 -10.4 84 84 SSW 3 6 30.24 1024 10 16 0.00 0.00
4:58 am 04:58 Cloudy 15 -9.2 13 -10.8 88 88 SSE 5 7 30.24 1024 10 16 0.00 0.00
5:58 am 05:58 Mostly Cloudy 17 -8.2 13 -10.7 82 82 S 6 9 30.23 1024 10 16 0.00 0.00
6:58 am 06:58 Mostly Clear 17 -8.4 12 -11 82 82 S 2 4 30.24 1024 10 16 0.00 0.00
7:58 am 07:58 Mostly Sunny 16 -8.9 12 -11.2 84 84 S 5 7 30.26 1025 10 16 0.00 0.00
8:58 am 08:58 Mostly Sunny 18 -8 12 -11 79 79 SW 6 9 30.26 1025 10 16 0.00 0.00
9:58 am 09:58 Mostly Sunny 21 -6.3 13 -10.5 72 72 SSW 3 6 30.26 1025 10 16 0.00 0.00
10:58 am 10:58 Mostly Sunny 24 -4.6 14 -10 66 66 SW 7 11 30.26 1025 10 16 0.00 0.00
11:58 am 11:58 Sunny 27 -2.9 17 -8.6 65 65 SW 7 11 30.26 1025 10 16 0.00 0.00
12:58 pm 12:58 Partly Cloudy 27 -2.8 15 -9.7 59 59 WSW 8 13 30.26 1025 10 16 0.00 0.00
1:58 pm 13:58 Mostly Cloudy 28 -2.3 16 -8.7 62 62 W 5 7 30.27 1025 10 16 0.00 0.00
2:58 pm 14:58 Sunny 30 -1.1 19 -7.4 63 63 WNW 12 19 30.27 1025 10 16 0.00 0.00
3:58 pm 15:58 Sunny 31 -0.8 20 -6.6 65 65 NW 13 20 30.29 1026 10 16 0.00 0.00
4:58 pm 16:58 Sunny 29 -1.7 21 -6.2 72 72 WNW 10 17 30.31 1026 10 16 0.00 0.00
5:58 pm 17:58 Clear 27 -2.7 21 -6.3 77 77 NW 7 11 30.32 1027 10 16 0.00 0.00
6:58 pm 18:58 Clear 25 -4 20 -6.9 80 80 W 5 7 30.35 1028 10 16 0.00 0.00
7:58 pm 19:58 Clear 21 -6 18 -8 86 86 WNW 6 9 30.36 1028 10 16 0.00 0.00
8:58 pm 20:58 Clear 17 -8.2 15 -9.5 90 90 NW 6 9 30.38 1029 10 16 0.00 0.00
9:58 pm 21:58 Clear 17 -8.5 14 -9.8 90 90 WNW 3 6 30.39 1029 10 16 0.00 0.00
10:58 pm 22:58 Clear 15 -9.2 14 -10.1 93 93 W 2 4 30.41 1030 10 16 0.00 0.00
11:58 pm 23:58 Clear 16 -8.7 14 -9.9 91 91 W 2 4 30.41 1030 10 16 0.00 0.00

Powered by AerisWeather